Temp
-8 -8 -9 -9 -10 -9 -9 -10 -11 -9 -8 -9 -9 -9 -9 -9 -9 -10 -10 -9 -9 -9 -9 -10 -10 -10 -10 -10 -10 -10 -10 -10 -11 -11 -11 -11 -11 -11 -11 -12 -12 -12 -12 -12 -12 -12 -12 -12 -12
-8 -9 -9 -10 -10 -10 -10 -11 -12 -10 -9 -9 -9 -9 -9 -9 -9 -9 -10 -10 -10 -10 -10 -10 -10 -10 -10 -10 -10 -10 -11 -11 -11 -12 -12 -12 -11 -12 -12 -12 -12 -12 -12 -12 -12 -12 -12 -12 -12
-9 -9 -10 -10 -10 -10 -11 -11 -12 -10 -9 -9 -9 -9 -9 -9 -9 -10 -10 -10 -10 -10 -10 -10 -10 -10 -10 -10 -10 -10 -10 -11 -12 -12 -12 -12 -12 -12 -12 -12 -12 -12 -12 -12 -12 -12 -12 -12 -12
-9 -10 -10 -10 -10 -12 -12 -12 -11 -10 -9 -9 -9 -9 -9 -9 -10 -10 -10 -10 -10 -10 -10 -10 -11 -10 -10 -10 -10 -10 -10 -11 -11 -11 -11 -12 -12 -12 -12 -12 -12 -12 -12 -12 -12 -12 -12 -12 -11
-10 -10 -10 -10 -10 -11 -13 -12 -11 -10 -9 -9 -9 -9 -9 -9 -10 -10 -11 -11 -10 -11 -10 -10 -10 -10 -10 -10 -10 -10 -10 -11 -11 -11 -12 -12 -12 -12 -12 -12 -12 -12 -12 -12 -12 -12 -12 -12 -12
-9 -10 -10 -10 -11 -12 -13 -12 -11 -9 -9 -9 -9 -9 -10 -9 -9 -10 -10 -10 -10 -10 -10 -10 -10 -10 -10 -10 -10 -10 -11 -11 -11 -12 -12 -12 -12 -12 -12 -12 -12 -12 -12 -12 -12 -12 -12 -11 -11
-9 -9 -9 -10 -11 -12 -13 -12 -10 -9 -9 -9 -9 -9 -9 -9 -9 -10 -10 -10 -11 -11 -11 -10 -10 -10 -10 -10 -10 -10 -10 -11 -11 -11 -11 -12 -12 -12 -12 -12 -12 -12 -12 -12 -11 -12 -12 -12 -12
-9 -9 -8 -10 -11 -11 -12 -10 -10 -9 -9 -9 -9 -9 -9 -8 -9 -10 -10 -11 -11 -11 -11 -11 -11 -10 -10 -10 -10 -11 -11 -11 -11 -11 -11 -12 -12 -12 -13 -12 -12 -12 -12 -11 -12 -12 -12 -12 -12
-9 -8 -8 -10 -11 -11 -12 -9 -9 -9 -9 -9 -10 -9 -9 -9 -9 -9 -10 -11 -11 -11 -11 -11 -11 -10 -10 -10 -11 -11 -11 -12 -12 -12 -12 -12 -12 -12 -12 -12 -12 -12 -12 -12 -12 -12 -12 -12 -12
-9 -8 -9 -10 -10 -10 -10 -9 -10 -9 -9 -9 -10 -9 -9 -9 -9 -10 -10 -11 -11 -11 -11 -11 -11 -11 -11 -10 -11 -12 -12 -12 -12 -13 -12 -12 -12 -12 -12 -12 -12 -12 -12 -12 -12 -12 -12 -12 -12
-9 -9 -9 -9 -9 -10 -10 -10 -9 -9 -9 -9 -9 -9 -8 -9 -9 -10 -10 -11 -11 -11 -11 -11 -11 -11 -11 -10 -11 -11 -12 -13 -13 -13 -12 -13 -12 -12 -12 -12 -12 -12 -12 -12 -12 -12 -12 -12 -12
-9 -9 -9 -9 -9 -9 -9 -10 -9 -9 -9 -10 -9 -9 -8 -9 -10 -10 -10 -11 -11 -11 -11 -11 -11 -11 -11 -11 -11 -11 -11 -12 -12 -13 -12 -12 -12 -12 -12 -12 -12 -12 -12 -12 -12 -12 -12 -12 -13
-9 -9 -9 -9 -9 -9 -9 -9 -9 -9 -9 -10 -9 -8 -8 -8 -9 -10 -10 -10 -11 -11 -11 -11 -11 -11 -11 -11 -11 -11 -11 -11 -11 -12 -12 -12 -12 -12 -12 -12 -12 -12 -12 -12 -12 -12 -13 -13 -13
-10 -9 -9 -10 -10 -9 -9 -9 -9 -9 -10 -10 -9 -9 -8 -8 -9 -9 -10 -10 -10 -11 -11 -11 -11 -11 -11 -11 -11 -11 -11 -11 -11 -12 -12 -12 -12 -12 -12 -12 -12 -12 -12 -13 -13 -13 -13 -13 -13
-10 -9 -9 -9 -10 -9 -10 -8 -9 -10 -10 -9 -10 -9 -9 -9 -9 -9 -9 -10 -10 -10 -10 -10 -11 -11 -10 -11 -11 -11 -11 -11 -11 -11 -12 -12 -12 -12 -12 -12 -12 -12 -13 -13 -13 -13 -13 -13 -13
-10 -10 -9 -10 -10 -10 -10 -8 -9 -9 -9 -9 -10 -10 -10 -10 -9 -9 -9 -10 -10 -10 -10 -11 -11 -11 -11 -10 -11 -11 -11 -11 -11 -12 -12 -12 -12 -12 -12 -12 -12 -13 -13 -13 -13 -13 -13 -14 -14
-10 -9 -10 -10 -10 -10 -10 -8 -9 -10 -10 -9 -9 -10 -10 -10 -10 -10 -10 -10 -10 -10 -10 -11 -11 -11 -11 -11 -11 -11 -11 -11 -12 -12 -12 -12 -12 -12 -12 -13 -13 -13 -13 -13 -13 -13 -14 -14 -14
-10 -10 -10 -10 -11 -11 -9 -9 -10 -10 -10 -10 -10 -9 -10 -10 -10 -10 -10 -10 -10 -10 -11 -11 -11 -11 -11 -11 -11 -11 -11 -12 -12 -12 -12 -12 -13 -13 -12 -13 -13 -13 -13 -13 -14 -14 -14 -15 -15
-10 -10 -10 -10 -13 -12 -10 -10 -10 -10 -10 -10 -10 -10 -10 -10 -10 -10 -10 -11 -10 -10 -10 -11 -11 -11 -11 -11 -12 -12 -12 -12 -12 -12 -12 -13 -13 -13 -13 -13 -13 -14 -14 -14 -14 -15 -15 -15 -15
-10 -10 -9 -11 -11 -12 -11 -9 -9 -10 -10 -10 -10 -10 -10 -10 -10 -10 -10 -10 -10 -10 -10 -10 -11 -11 -11 -12 -12 -12 -12 -12 -12 -12 -12 -13 -13 -13 -13 -14 -14 -14 -14 -14 -14 -14 -14 -14 -14
-10 -10 -10 -11 -13 -13 -11 -10 -8 -9 -10 -10 -10 -9 -10 -10 -10 -10 -10 -10 -10 -10 -10 -10 -11 -11 -12 -12 -12 -12 -12 -12 -12 -13 -13 -13 -13 -14 -13 -14 -14 -14 -14 -14 -14 -14 -14 -14 -14
-12 -10 -11 -12 -12 -12 -13 -11 -8 -9 -9 -10 -10 -9 -9 -10 -10 -10 -10 -10 -10 -10 -10 -10 -11 -11 -11 -12 -12 -12 -13 -13 -14 -14 -14 -14 -13 -13 -13 -14 -14 -13 -14 -14 -14 -14 -14 -15 -15
-12 -11 -13 -12 -13 -13 -11 -14 -7 -11 -9 -9 -9 -10 -9 -10 -10 -10 -11 -11 -10 -11 -11 -10 -11 -11 -11 -11 -12 -12 -13 -14 -14 -14 -14 -14 -14 -14 -14 -14 -14 -14 -14 -14 -14 -14 -14 -14 -15
-13 -12 -13 -14 -13 -14 -10 -12 -11 -9 -10 -10 -12 -10 -9 -9 -10 -11 -11 -11 -11 -11 -11 -11 -11 -11 -11 -12 -12 -12 -13 -14 -14 -14 -14 -14 -14 -14 -14 -14 -14 -14 -14 -13 -13 -14 -14 -14 -15
-13 -14 -14 -15 -14 -12 -10 -12 -15 -9 -11 -11 -11 -12 -10 -10 -11 -11 -12 -12 -12 -11 -11 -12 -12 -12 -12 -12 -13 -13 -13 -14 -14 -14 -14 -14 -14 -14 -14 -14 -14 -14 -14 -14 -14 -14 -14 -14 -15
-15 -14 -16 -15 -14 -14 -13 -14 -12 -11 -12 -12 -11 -11 -11 -11 -11 -12 -12 -13 -13 -12 -12 -12 -12 -13 -13 -13 -14 -14 -14 -15 -14 -15 -14 -14 -14 -14 -14 -14 -14 -14 -14 -14 -14 -14 -15 -15 -15
-14 -15 -13 -16 -15 -16 -15 -13 -13 -11 -12 -11 -12 -11 -11 -11 -12 -12 -13 -14 -14 -13 -13 -13 -13 -13 -13 -13 -14 -14 -14 -15 -15 -15 -15 -14 -14 -14 -14 -14 -14 -14 -14 -15 -15 -15 -15 -15 -15
-15 -14 -16 -16 -16 -15 -14 -13 -13 -13 -13 -12 -12 -12 -12 -12 -12 -12 -13 -13 -14 -14 -13 -13 -13 -14 -15 -15 -15 -15 -14 -14 -14 -14 -15 -14 -14 -14 -15 -14 -14 -15 -15 -15 -15 -15 -15 -15 -15
-16 -15 -16 -16 -16 -15 -15 -14 -13 -13 -15 -13 -12 -12 -12 -12 -13 -13 -14 -14 -15 -15 -15 -14 -14 -14 -14 -14 -15 -15 -15 -14 -14 -14 -14 -14 -14 -14 -15 -15 -15 -15 -15 -15 -15 -15 -15 -16 -16
-16 -15 -15 -15 -15 -16 -15 -15 -15 -16 -16 -15 -14 -14 -14 -13 -14 -14 -14 -14 -15 -15 -15 -15 -15 -15 -15 -15 -15 -15 -15 -15 -15 -15 -15 -15 -15 -15 -15 -15 -15 -16 -15 -15 -15 -16 -15 -15 -17
Height
5828 5826 5824 5824 5826 5827 5828 5830 5828 5826 5827 5824 5828 5830 5831 5831 5832 5832 5826 5827 5828 5829 5829 5830 5830 5831 5831 5832 5833 5833 5834 5835 5834 5834 5834 5834 5833 5833 5834 5834 5834 5834 5833 5833 5832 5831 5831 5830 5830
5818 5817 5817 5816 5820 5822 5828 5828 5819 5821 5818 5821 5823 5825 5825 5825 5825 5824 5822 5823 5824 5826 5826 5826 5826 5827 5827 5827 5828 5829 5830 5830 5830 5830 5830 5831 5831 5831 5831 5831 5832 5831 5831 5830 5829 5828 5828 5828 5828
5813 5812 5812 5811 5814 5818 5827 5817 5812 5814 5814 5815 5818 5820 5820 5820 5819 5819 5817 5817 5819 5821 5822 5823 5822 5822 5822 5822 5823 5824 5824 5825 5824 5825 5826 5827 5827 5827 5828 5828 5828 5828 5828 5827 5826 5825 5825 5825 5825
5808 5808 5808 5807 5810 5814 5815 5811 5809 5811 5809 5810 5813 5816 5815 5814 5814 5813 5812 5812 5813 5815 5816 5817 5817 5816 5815 5816 5817 5818 5818 5818 5819 5820 5821 5822 5823 5824 5825 5825 5825 5825 5825 5825 5825 5824 5823 5823 5823
5804 5803 5802 5804 5805 5807 5808 5803 5804 5805 5804 5805 5807 5811 5809 5810 5809 5809 5808 5808 5808 5810 5811 5811 5811 5811 5812 5811 5811 5812 5814 5814 5814 5815 5816 5817 5818 5820 5820 5821 5822 5822 5822 5823 5822 5822 5822 5821 5821
5799 5798 5797 5799 5801 5804 5803 5798 5800 5800 5799 5802 5802 5805 5805 5806 5803 5806 5804 5804 5805 5805 5806 5805 5806 5807 5807 5807 5807 5807 5808 5809 5810 5810 5811 5813 5814 5815 5816 5817 5818 5819 5819 5819 5819 5819 5819 5818 5818
5794 5792 5793 5795 5795 5797 5797 5793 5795 5795 5795 5796 5797 5800 5799 5799 5800 5801 5800 5800 5800 5800 5800 5800 5801 5802 5802 5803 5803 5804 5804 5805 5806 5807 5807 5808 5809 5810 5812 5813 5814 5814 5814 5815 5815 5816 5815 5815 5814
5790 5788 5788 5790 5790 5792 5790 5789 5790 5790 5789 5790 5792 5795 5793 5796 5795 5795 5796 5796 5796 5795 5795 5795 5796 5797 5798 5798 5799 5800 5801 5802 5802 5803 5803 5804 5805 5806 5807 5808 5809 5810 5810 5811 5812 5812 5812 5812 5811
5784 5784 5785 5786 5785 5786 5785 5784 5784 5784 5784 5785 5786 5787 5788 5788 5789 5790 5790 5791 5791 5791 5789 5790 5792 5793 5793 5794 5795 5795 5796 5797 5798 5799 5800 5800 5801 5801 5803 5804 5804 5805 5806 5807 5808 5808 5808 5808 5808
5777 5778 5780 5779 5779 5779 5779 5778 5780 5779 5779 5779 5781 5780 5782 5783 5783 5785 5785 5785 5786 5786 5785 5785 5786 5788 5788 5788 5789 5790 5791 5792 5793 5794 5794 5795 5796 5798 5800 5799 5800 5800 5801 5803 5803 5803 5804 5803 5803
5771 5774 5774 5774 5773 5772 5772 5771 5772 5772 5775 5774 5775 5774 5774 5777 5778 5779 5779 5780 5780 5781 5780 5780 5781 5782 5784 5784 5784 5785 5785 5786 5788 5789 5789 5791 5790 5792 5793 5794 5795 5796 5796 5797 5797 5798 5799 5798 5798
5761 5767 5767 5769 5767 5766 5767 5766 5765 5764 5771 5769 5769 5768 5767 5771 5773 5774 5774 5773 5774 5776 5775 5775 5775 5777 5778 5780 5781 5780 5780 5781 5783 5783 5784 5785 5786 5786 5788 5789 5790 5790 5791 5792 5792 5793 5793 5794 5794
5757 5760 5759 5760 5761 5760 5759 5760 5758 5760 5763 5762 5762 5762 5763 5765 5766 5768 5769 5768 5769 5769 5770 5770 5770 5770 5771 5774 5774 5776 5776 5777 5778 5779 5780 5781 5782 5782 5783 5783 5784 5785 5786 5786 5787 5787 5788 5788 5788
5752 5750 5752 5753 5755 5754 5752 5752 5750 5760 5756 5753 5754 5756 5758 5759 5760 5759 5761 5763 5764 5763 5763 5763 5764 5765 5765 5767 5768 5769 5770 5771 5772 5773 5774 5775 5776 5777 5777 5778 5778 5779 5780 5781 5781 5782 5782 5782 5781
5743 5741 5742 5748 5749 5748 5744 5741 5748 5752 5749 5749 5749 5749 5750 5751 5752 5753 5755 5755 5756 5757 5758 5759 5757 5758 5760 5760 5761 5763 5763 5765 5766 5766 5768 5768 5769 5770 5771 5771 5772 5773 5773 5773 5774 5773 5774 5774 5773
5735 5733 5734 5743 5738 5741 5736 5735 5742 5743 5743 5743 5743 5743 5742 5743 5745 5745 5747 5747 5747 5749 5752 5752 5752 5752 5752 5753 5755 5756 5756 5758 5758 5759 5760 5761 5762 5763 5764 5765 5765 5765 5765 5765 5765 5766 5765 5766 5765
5726 5729 5732 5730 5731 5731 5730 5730 5734 5734 5734 5734 5734 5735 5738 5738 5738 5740 5740 5738 5738 5739 5743 5744 5744 5746 5745 5745 5747 5748 5749 5749 5750 5752 5753 5754 5755 5756 5757 5757 5758 5758 5758 5757 5758 5758 5757 5757 5757
5721 5720 5720 5719 5722 5722 5724 5723 5727 5725 5724 5725 5725 5726 5727 5729 5733 5733 5733 5732 5729 5729 5733 5735 5735 5737 5738 5738 5740 5740 5741 5741 5743 5745 5745 5746 5747 5748 5749 5750 5750 5750 5751 5750 5750 5750 5749 5748 5747
5708 5709 5710 5711 5715 5709 5713 5714 5717 5719 5715 5712 5716 5719 5719 5719 5722 5722 5722 5723 5724 5723 5726 5726 5726 5728 5728 5729 5731 5732 5733 5732 5734 5736 5736 5738 5739 5740 5741 5742 5742 5743 5743 5742 5741 5741 5739 5738 5737
5696 5697 5699 5700 5700 5699 5701 5701 5708 5705 5705 5706 5705 5707 5710 5712 5712 5711 5712 5713 5714 5714 5717 5718 5717 5716 5719 5720 5721 5722 5723 5723 5724 5725 5727 5729 5730 5731 5732 5734 5734 5734 5734 5733 5732 5731 5729 5727 5727
5681 5685 5689 5687 5686 5685 5688 5684 5695 5697 5695 5695 5694 5692 5698 5699 5700 5700 5699 5699 5703 5702 5707 5710 5708 5706 5707 5710 5710 5710 5712 5713 5715 5718 5719 5719 5720 5722 5723 5725 5725 5725 5724 5724 5722 5721 5720 5720 5718
5668 5678 5674 5670 5670 5668 5677 5667 5681 5684 5684 5684 5685 5681 5683 5688 5688 5686 5687 5687 5686 5692 5692 5695 5697 5698 5698 5699 5699 5701 5704 5705 5707 5706 5707 5708 5709 5712 5714 5715 5715 5715 5715 5713 5713 5710 5708 5709 5708
5653 5663 5656 5656 5651 5651 5659 5651 5658 5674 5673 5673 5669 5670 5670 5673 5672 5674 5674 5674 5673 5676 5677 5681 5683 5685 5687 5688 5689 5691 5693 5694 5694 5694 5696 5698 5699 5702 5703 5704 5705 5705 5704 5704 5705 5702 5702 5700 5698
5640 5646 5638 5639 5636 5628 5645 5641 5644 5655 5662 5663 5650 5652 5656 5658 5658 5659 5660 5661 5660 5662 5663 5666 5670 5672 5674 5675 5676 5679 5681 5682 5683 5684 5686 5688 5688 5689 5692 5693 5694 5693 5693 5694 5692 5693 5691 5690 5688
5624 5628 5621 5617 5615 5608 5633 5621 5620 5651 5645 5642 5645 5636 5639 5642 5643 5642 5644 5646 5645 5649 5650 5651 5655 5657 5660 5662 5663 5665 5668 5670 5672 5673 5674 5676 5676 5677 5681 5681 5682 5683 5682 5681 5681 5680 5680 5679 5678
5606 5612 5605 5599 5599 5600 5613 5600 5612 5629 5631 5629 5628 5628 5627 5628 5627 5627 5629 5631 5632 5635 5637 5640 5642 5641 5645 5648 5649 5651 5654 5657 5658 5661 5664 5664 5663 5664 5667 5669 5671 5671 5672 5671 5670 5670 5669 5667 5667
5598 5588 5599 5587 5587 5582 5584 5593 5598 5612 5608 5614 5614 5618 5617 5616 5615 5615 5615 5616 5619 5622 5625 5628 5631 5632 5634 5635 5636 5637 5640 5643 5644 5648 5650 5651 5652 5651 5655 5657 5659 5660 5660 5659 5659 5657 5656 5654 5653
5573 5586 5577 5573 5565 5561 5564 5575 5584 5595 5590 5597 5599 5599 5600 5601 5602 5603 5603 5604 5605 5608 5611 5615 5618 5619 5622 5624 5624 5625 5627 5628 5630 5633 5635 5637 5638 5640 5643 5645 5645 5646 5647 5646 5645 5644 5643 5641 5638
5564 5562 5554 5554 5554 5545 5549 5553 5577 5576 5574 5576 5580 5580 5583 5585 5588 5589 5590 5592 5593 5596 5597 5601 5604 5607 5609 5610 5611 5612 5614 5615 5618 5621 5623 5623 5626 5630 5629 5631 5633 5632 5632 5632 5629 5629 5627 5627 5626
5544 5547 5542 5534 5531 5533 5537 5537 5560 5552 5555 5559 5563 5564 5564 5568 5573 5575 5577 5579 5582 5585 5586 5589 5591 5594 5596 5599 5600 5602 5602 5604 5607 5610 5613 5614 5617 5617 5616 5617 5619 5618 5617 5616 5615 5615 5613 5612 5613
Wind_Speed
45 39 27 28 31 29 26 21 25 30 34 36 29 27 25 26 24 25 27 25 23 19 20 24 24 26 29 27 26 24 22 21 17 15 16 18 17 15 14 14 14 15 15 17 19 18 17 14 13
34 27 25 26 27 24 15 16 28 28 37 32 30 28 28 27 28 27 28 24 22 16 18 23 26 28 28 29 29 26 23 20 17 17 16 19 17 16 15 15 15 15 16 18 20 18 14 12 12
29 22 24 24 24 22 14 26 36 31 33 33 30 28 27 26 27 26 27 25 21 19 19 20 24 26 29 32 31 29 27 23 19 17 17 17 16 16 17 16 17 17 18 17 15 11 10 11 12
24 19 22 22 21 18 23 27 34 29 33 34 30 26 27 24 25 26 27 27 23 22 21 22 23 25 24 24 27 30 26 25 18 17 15 15 16 17 18 19 19 18 19 19 17 11 10 9 9
23 23 22 21 21 22 21 31 29 29 34 33 31 24 27 23 24 25 27 27 26 23 22 23 24 19 19 22 26 27 27 21 18 17 15 16 17 18 19 20 22 21 21 19 15 13 12 12 11
23 21 23 17 16 16 22 30 26 30 34 32 33 28 26 22 28 24 29 26 26 24 24 23 21 20 22 22 23 23 22 19 18 16 16 16 17 19 21 23 24 23 21 17 15 15 14 13 13
24 22 18 18 18 22 24 28 28 31 33 33 34 29 28 26 26 25 27 23 20 22 24 21 21 22 22 21 20 20 19 17 17 17 17 18 20 22 23 25 25 23 20 17 16 17 16 16 15
25 23 17 14 16 18 23 28 28 30 35 35 33 27 28 21 24 24 23 20 21 24 26 22 24 23 22 21 20 19 18 17 17 18 19 20 22 23 24 24 24 23 20 19 18 18 18 18 17
26 23 18 14 18 20 23 27 30 33 34 35 32 27 25 25 26 25 22 21 21 24 28 24 24 26 24 22 20 19 18 18 19 20 21 23 22 23 23 23 22 21 21 21 20 20 20 20 20
27 25 20 21 25 25 27 27 29 34 34 34 29 29 23 23 27 26 25 24 24 25 28 26 27 27 26 24 22 20 20 20 21 23 25 23 24 25 23 24 24 23 23 23 22 22 23 22 23
28 24 24 24 26 29 28 29 29 34 33 33 31 32 28 25 26 26 27 27 27 27 30 30 29 29 29 29 26 26 24 23 24 25 26 26 27 26 25 26 25 26 25 26 25 26 26 25 26
36 26 27 27 29 31 29 30 32 33 28 32 34 33 32 26 29 29 30 32 33 29 31 30 31 30 29 29 30 30 29 27 27 27 28 28 29 29 27 28 29 29 28 29 28 28 29 29 29
37 32 32 30 30 31 33 31 32 34 31 32 34 33 32 27 30 32 33 37 35 34 33 32 33 34 34 30 30 31 31 30 30 29 30 30 30 31 31 31 31 30 31 31 31 31 31 32 33
34 36 33 34 31 31 34 34 37 25 30 36 37 35 33 32 31 33 35 36 37 40 37 35 34 36 37 33 32 32 32 31 30 30 30 30 31 33 32 33 33 34 34 34 34 34 34 36 37
36 39 38 30 31 32 36 41 35 29 34 35 37 37 36 34 34 34 33 35 39 41 42 39 36 36 37 36 34 33 32 32 31 31 32 32 32 33 33 34 34 36 36 37 37 36 37 39 40
39 42 39 25 33 30 38 35 30 32 34 34 36 38 41 39 37 35 33 34 38 39 39 41 39 36 36 37 36 35 33 32 34 34 33 33 34 34 34 34 35 36 38 39 39 40 40 41 42
45 41 36 37 36 36 38 35 32 32 35 35 36 39 39 41 43 38 35 36 37 38 37 39 41 38 39 40 37 36 34 35 37 36 34 35 34 34 35 36 36 39 40 41 42 42 43 43 45
42 44 45 43 43 42 40 41 36 38 41 39 38 38 39 40 38 39 41 41 41 38 35 38 42 40 39 41 38 37 34 34 35 36 36 36 36 36 38 37 38 40 41 44 44 46 46 45 47
49 46 49 48 36 44 41 45 44 43 47 48 40 38 39 41 39 40 43 45 44 44 39 38 40 42 40 39 38 38 35 36 37 38 39 39 39 38 39 37 38 39 42 45 48 49 50 51 51
59 56 52 50 50 54 51 50 45 50 52 51 52 47 42 40 42 43 45 44 47 48 47 45 43 45 43 42 40 41 41 40 40 41 42 40 38 37 37 36 38 42 46 47 47 51 56 54 55
60 57 53 52 49 52 54 59 52 51 52 53 53 56 47 46 46 47 47 48 46 48 47 48 49 49 48 44 45 47 47 44 41 39 37 39 39 37 37 36 39 41 43 43 45 51 51 51 53
62 56 54 55 56 58 48 61 56 55 57 57 55 60 56 47 49 50 50 48 47 47 47 49 51 51 51 51 53 51 47 42 39 41 41 42 43 40 37 39 38 39 43 42 45 44 42 44 45
62 58 59 60 60 61 63 61 63 51 54 55 60 58 58 55 53 48 47 47 49 46 51 50 52 54 53 53 54 53 50 44 44 46 46 45 46 43 42 42 42 42 43 44 46 40 36 39 37
61 60 63 58 63 68 70 68 66 65 58 57 58 62 60 59 53 47 48 50 53 52 51 50 53 54 54 54 55 54 50 48 48 48 50 49 51 50 46 45 43 43 47 45 45 44 40 43 43
65 61 63 64 67 79 69 73 64 56 63 63 57 60 62 56 48 46 46 46 50 54 56 56 54 53 53 52 54 52 52 51 50 52 54 55 56 56 51 51 49 47 48 48 49 47 46 47 46
64 62 65 72 76 77 70 75 71 60 61 64 66 63 60 55 52 53 51 46 45 47 49 55 56 53 53 53 53 53 53 54 56 55 58 61 63 62 56 53 52 50 50 51 54 56 53 49 47
63 66 67 67 69 68 67 68 65 56 58 54 59 67 61 59 57 57 54 45 39 43 48 50 49 53 54 53 53 55 56 58 62 60 62 64 63 65 60 56 53 54 54 55 57 59 61 57 57
62 58 65 65 68 74 78 75 69 66 69 64 58 57 58 58 57 56 55 52 43 40 45 48 50 51 53 52 53 54 55 59 60 59 62 65 65 63 64 60 56 57 56 59 62 62 63 63 66
51 61 59 62 62 68 66 70 57 62 54 62 60 61 60 58 55 57 52 50 44 40 40 41 44 47 52 54 56 56 58 59 57 57 59 63 59 61 66 63 61 61 59 61 64 68 67 66 71
39 49 45 45 40 63 63 65 62 55 63 65 63 62 61 60 57 56 55 55 50 47 44 44 44 47 53 52 51 51 53 54 54 56 57 58 60 62 67 67 67 66 58 66 67 66 68 71 49
Wind_Direction
304 296 278 267 262 264 266 264 242 256 262 265 277 278 280 279 271 256 281 277 275 278 271 270 271 269 266 263 260 262 267 277 274 272 276 276 274 267 263 266 267 280 300 312 314 313 308 308 309
302 283 267 262 260 269 269 263 258 253 259 272 276 281 282 282 279 272 270 273 275 273 274 276 276 275 268 267 267 267 272 274 266 268 273 273 268 266 267 269 269 283 298 307 312 303 298 299 301
300 273 263 257 254 253 241 251 249 258 265 272 279 282 282 280 278 273 272 273 270 265 262 265 269 268 268 268 265 264 267 267 255 261 268 264 258 261 268 267 270 284 300 303 310 302 296 296 300
292 286 279 268 255 251 247 252 257 267 267 270 277 284 280 283 275 272 272 272 268 265 264 257 263 268 265 264 258 262 261 258 256 258 259 263 262 265 267 264 272 284 294 298 296 292 291 297 304
282 290 285 276 253 249 249 254 265 262 265 272 277 284 283 280 278 271 268 268 271 269 267 265 273 261 252 265 259 258 261 255 250 247 251 256 259 261 260 265 273 282 288 291 288 293 293 297 296
278 286 285 273 258 264 263 260 262 263 266 275 278 276 279 279 271 267 265 270 276 274 272 271 266 262 259 256 254 255 251 246 244 241 245 253 254 256 260 267 276 281 280 278 283 285 282 284 287
277 287 283 270 246 242 250 262 262 263 268 275 278 283 275 269 268 265 266 269 265 274 278 281 271 264 257 246 242 245 246 242 242 247 244 246 251 253 259 267 271 271 269 264 271 277 281 285 287
273 276 281 273 258 245 250 264 268 266 269 273 279 285 276 268 262 262 264 262 265 273 279 279 278 261 248 242 240 233 233 237 239 244 249 252 256 257 259 263 266 261 257 257 265 272 277 280 281
268 268 273 270 262 253 256 263 266 266 267 274 282 283 279 262 259 254 256 254 262 267 275 276 269 264 247 239 235 231 231 234 241 249 255 257 259 261 261 261 260 256 252 254 263 269 276 278 281
265 263 267 262 258 259 255 266 263 270 274 278 288 286 277 265 258 259 256 255 254 259 266 270 267 264 252 242 237 236 236 239 243 249 252 254 257 258 260 260 258 254 251 256 263 269 273 271 276
265 263 264 262 264 260 258 261 262 262 270 276 280 283 279 268 255 251 251 254 251 252 259 266 267 262 257 250 239 239 239 243 247 250 252 252 253 253 254 256 256 258 258 261 265 268 270 269 274
268 266 262 260 262 264 265 260 258 263 268 271 274 275 273 271 263 251 248 250 253 253 256 263 267 266 261 255 256 248 242 244 247 250 252 254 254 254 255 256 256 256 257 261 266 269 270 271 274
272 268 262 260 258 265 264 261 262 258 261 263 267 267 269 260 264 260 252 248 251 252 253 256 261 266 265 259 257 254 253 250 250 253 256 257 259 259 258 255 255 257 261 265 269 271 271 273 274
269 272 265 263 262 258 261 260 259 262 257 257 259 262 266 265 259 259 259 258 256 254 254 252 255 261 265 266 260 255 253 255 255 256 257 258 260 262 262 260 259 258 261 264 267 271 272 271 273
273 270 268 268 268 259 259 255 256 257 256 259 265 266 264 262 259 261 263 262 260 260 261 259 255 258 263 267 265 261 257 255 256 257 259 260 261 261 263 264 263 263 263 263 266 267 268 270 272
269 264 270 274 262 255 251 258 258 257 257 261 261 264 268 268 265 260 259 261 265 264 264 265 262 258 260 264 265 265 263 261 257 257 257 260 261 263 265 266 266 266 265 265 265 266 268 269 272
269 282 282 273 260 256 251 256 258 259 258 261 260 265 266 268 271 268 263 260 261 262 262 263 265 260 258 260 263 264 263 264 263 262 262 262 263 264 266 266 269 268 268 266 266 267 268 269 271
282 280 276 270 267 260 257 262 257 260 263 261 260 264 268 272 271 275 272 263 259 257 256 259 258 255 257 260 262 263 262 264 268 267 264 263 262 264 266 267 268 270 272 270 270 269 268 269 269
271 273 273 272 262 269 258 258 262 264 265 266 260 262 266 271 270 267 267 270 268 263 259 260 262 261 255 258 261 262 261 259 261 263 262 260 262 265 267 270 271 275 276 274 272 269 269 271 270
271 270 269 272 267 265 271 265 257 259 263 268 272 267 269 270 272 270 269 265 269 270 265 260 256 257 256 255 257 258 255 255 256 258 259 262 266 266 268 271 273 274 274 278 287 283 274 270 273
270 269 271 274 267 266 266 263 260 258 261 264 267 270 267 268 271 270 270 268 263 265 267 265 258 252 253 253 252 252 254 255 257 260 264 265 264 263 266 273 277 284 288 290 290 288 288 283 283
267 272 272 269 265 263 260 265 262 261 263 263 267 271 272 271 267 266 269 268 268 264 260 258 260 259 255 252 253 256 256 253 254 255 256 260 265 270 270 274 276 278 286 285 285 290 289 280 286
267 271 266 264 261 261 259 258 269 260 263 268 270 270 272 269 268 267 264 265 265 258 255 254 254 255 255 254 253 252 253 251 253 255 258 261 265 268 270 274 276 275 279 281 290 286 273 282 284
262 261 261 256 259 256 261 262 261 262 268 267 273 270 268 269 275 272 270 265 265 263 257 254 251 251 252 253 253 252 249 249 253 256 259 261 264 264 266 271 270 272 276 279 282 285 274 281 281
262 255 253 253 252 259 267 260 261 267 266 264 269 270 273 272 272 273 272 266 262 262 258 255 249 248 247 249 252 253 253 251 252 255 258 260 263 264 268 269 269 271 271 276 280 277 273 276 278
261 258 258 259 260 263 264 262 265 270 264 262 263 267 268 270 271 271 272 271 266 264 259 256 252 243 242 242 244 248 250 250 251 253 253 256 259 265 265 265 269 271 272 276 278 278 273 273 276
259 258 268 266 263 262 262 265 269 267 264 264 266 261 263 266 266 268 270 268 260 258 257 253 252 252 248 243 242 245 247 248 251 250 250 253 257 262 266 267 269 271 274 273 276 274 274 272 272
262 264 259 261 262 261 263 265 266 268 270 267 268 264 261 261 263 263 264 266 262 254 255 254 254 255 254 252 248 246 247 248 249 248 248 251 252 260 263 266 270 271 273 271 274 274 273 276 272
264 264 256 259 256 265 268 265 270 270 257 263 261 260 255 256 259 261 261 259 257 251 251 251 248 250 254 251 247 246 244 244 246 249 251 256 256 258 263 267 268 270 270 271 273 272 274 274 271
243 238 235 252 255 249 257 264 265 247 257 258 260 258 258 256 255 256 259 258 259 258 255 251 250 248 248 251 252 249 247 248 251 251 251 254 256 260 260 263 265 266 271 272 271 270 274 274 251